Location: Spangle
(47.4302°N, 117.3779°W)
Time: 14:15:45
(UTC+00:00)

Envisat - Pass Details

Date: 26 April 2026
Orbit: 761 x 762 km, 98.4° (Epoch: 15 May)

Event Time Altitude Azimuth Distance (km) Brightness Sun altitude
Rises 10:58:56 0° 10° (N) 3,236 7.1 -15.5°
Reaches altitude 10° 11:01:16 10° 7° (N) 2,305 6.2 -15.2°
Maximum altitude 11:06:15 59° 289° (WNW) 879 3.1 -14.6°
Enters shadow 11:09:38 20° 216° (SW) 1,694 4.2 -14.1°
